Time,TemperatureF,DewpointF,PressureIn,WindDirection,WindDirectionDegrees,WindSpeedMPH,WindSpeedGustMPH,Humidity,HourlyPrecipIn,Conditions,Clouds,dailyrainin,SolarRadiationWatts/m^2,SoftwareType,DateUTC
2013-03-06 00:02:00,49.0,33.0,-100.00,NNW,333,4.0,11.0,54,0.00,,,0.00,0.000000,,2013-03-06 06:02:00,
2013-03-06 00:32:00,47.0,30.0,-100.00,NNW,337,4.0,12.0,52,0.00,,,0.00,0.000000,,2013-03-06 06:32:00,
2013-03-06 00:42:00,47.0,30.0,-100.00,NNW,337,4.0,12.0,52,0.00,,,0.00,0.000000,,2013-03-06 06:42:00,
2013-03-06 00:52:00,47.0,30.0,-100.00,NNW,337,4.0,12.0,52,0.00,,,0.00,0.000000,,2013-03-06 06:52:00,
2013-03-06 01:01:00,47.0,30.0,-100.00,NNW,337,4.0,12.0,52,0.00,,,0.00,0.000000,,2013-03-06 07:01:00,
2013-03-06 01:32:00,45.0,28.0,-100.00,North,349,4.0,9.0,51,0.00,,,0.00,0.000000,,2013-03-06 07:32:00,
2013-03-06 01:42:00,45.0,28.0,-100.00,North,349,4.0,9.0,51,0.00,,,0.00,0.000000,,2013-03-06 07:42:00,
2013-03-06 01:52:00,45.0,28.0,-100.00,North,349,4.0,9.0,51,0.00,,,0.00,0.000000,,2013-03-06 07:52:00,
2013-03-06 02:01:00,45.0,28.0,-100.00,North,349,4.0,9.0,51,0.00,,,0.00,0.000000,,2013-03-06 08:01:00,
2013-03-06 02:32:00,43.0,26.0,-100.00,NNW,337,4.0,14.0,51,0.00,,,-99.99,0.000000,,2013-03-06 08:32:00,
2013-03-06 02:42:00,43.0,26.0,-100.00,NNW,337,4.0,14.0,51,0.00,,,-99.99,0.000000,,2013-03-06 08:42:00,
2013-03-06 02:52:00,43.0,26.0,-100.00,NNW,337,4.0,14.0,51,0.00,,,-99.99,0.000000,,2013-03-06 08:52:00,
2013-03-06 03:01:00,43.0,26.0,-100.00,NNW,337,4.0,14.0,51,0.00,,,-99.99,0.000000,,2013-03-06 09:01:00,
2013-03-06 03:32:00,42.0,23.0,-100.00,North,349,4.0,9.0,47,0.00,,,0.00,0.000000,,2013-03-06 09:32:00,
2013-03-06 03:42:00,42.0,23.0,-100.00,North,349,4.0,9.0,47,0.00,,,0.00,0.000000,,2013-03-06 09:42:00,
2013-03-06 03:52:00,42.0,23.0,-100.00,North,349,4.0,9.0,47,0.00,,,0.00,0.000000,,2013-03-06 09:52:00,
2013-03-06 04:01:00,42.0,23.0,-100.00,North,349,4.0,9.0,47,0.00,,,0.00,0.000000,,2013-03-06 10:01:00,
2013-03-06 04:32:00,40.0,22.0,-100.00,NNW,347,3.0,11.0,49,0.00,,,0.00,0.000000,,2013-03-06 10:32:00,
2013-03-06 04:42:00,40.0,22.0,-100.00,NNW,347,3.0,11.0,49,0.00,,,0.00,0.000000,,2013-03-06 10:42:00,
2013-03-06 04:52:00,40.0,22.0,-100.00,NNW,347,3.0,11.0,49,0.00,,,0.00,0.000000,,2013-03-06 10:52:00,
2013-03-06 05:02:00,40.0,22.0,-100.00,NNW,347,3.0,11.0,49,0.00,,,0.00,0.000000,,2013-03-06 11:02:00,
2013-03-06 05:32:00,39.0,23.0,-100.00,NNW,341,4.0,10.0,52,0.00,,,0.00,0.000000,,2013-03-06 11:32:00,
2013-03-06 05:42:00,39.0,23.0,-100.00,NNW,341,4.0,10.0,52,0.00,,,0.00,0.000000,,2013-03-06 11:42:00,
2013-03-06 05:52:00,39.0,23.0,-100.00,NNW,341,4.0,10.0,52,0.00,,,0.00,0.000000,,2013-03-06 11:52:00,
2013-03-06 06:02:00,39.0,23.0,-100.00,NNW,341,4.0,10.0,52,0.00,,,0.00,0.000000,,2013-03-06 12:02:00,
2013-03-06 06:33:00,38.0,23.0,-100.00,North,355,3.0,10.0,54,0.00,,,0.00,0.000000,,2013-03-06 12:33:00,
2013-03-06 06:43:00,38.0,23.0,-100.00,North,355,3.0,10.0,54,0.00,,,0.00,0.000000,,2013-03-06 12:43:00,
2013-03-06 06:52:00,38.0,23.0,-100.00,North,355,3.0,10.0,54,0.00,,,0.00,0.000000,,2013-03-06 12:52:00,
2013-03-06 07:02:00,38.0,23.0,-100.00,North,355,3.0,10.0,54,0.00,,,0.00,0.000000,,2013-03-06 13:02:00,
2013-03-06 07:32:00,39.0,24.0,-100.00,NNW,334,3.0,8.0,55,0.00,,,0.00,15.000000,,2013-03-06 13:32:00,
2013-03-06 07:42:00,39.0,24.0,-100.00,NNW,334,3.0,8.0,55,0.00,,,0.00,15.000000,,2013-03-06 13:42:00,
2013-03-06 07:52:00,39.0,24.0,-100.00,NNW,334,3.0,8.0,55,0.00,,,0.00,15.000000,,2013-03-06 13:52:00,
2013-03-06 08:01:00,39.0,24.0,-100.00,NNW,334,3.0,8.0,55,0.00,,,0.00,15.000000,,2013-03-06 14:01:00,
2013-03-06 08:32:00,45.0,25.0,-100.00,North,3,6.0,13.0,45,0.00,,,0.00,186.000000,,2013-03-06 14:32:00,
2013-03-06 08:42:00,45.0,25.0,-100.00,North,3,6.0,13.0,45,0.00,,,0.00,186.000000,,2013-03-06 14:42:00,
2013-03-06 08:52:00,45.0,25.0,-100.00,North,3,6.0,13.0,45,0.00,,,0.00,186.000000,,2013-03-06 14:52:00,
2013-03-06 09:02:00,45.0,25.0,-100.00,North,3,6.0,13.0,45,0.00,,,0.00,186.000000,,2013-03-06 15:02:00,
2013-03-06 09:32:00,48.0,25.0,-100.00,North,3,6.0,16.0,41,0.00,,,0.00,383.000000,,2013-03-06 15:32:00,
2013-03-06 09:42:00,48.0,25.0,-100.00,North,3,6.0,16.0,41,0.00,,,0.00,383.000000,,2013-03-06 15:42:00,
2013-03-06 09:52:00,48.0,25.0,-100.00,North,3,6.0,16.0,41,0.00,,,0.00,383.000000,,2013-03-06 15:52:00,
2013-03-06 10:01:00,48.0,25.0,-100.00,North,3,6.0,16.0,41,0.00,,,0.00,383.000000,,2013-03-06 16:01:00,
2013-03-06 10:32:00,52.0,25.0,-100.00,NNW,345,5.0,15.0,35,0.00,,,0.00,548.000000,,2013-03-06 16:32:00,
2013-03-06 10:42:00,52.0,25.0,-100.00,NNW,345,5.0,15.0,35,0.00,,,0.00,548.000000,,2013-03-06 16:42:00,
2013-03-06 10:52:00,52.0,25.0,-100.00,NNW,345,5.0,15.0,35,0.00,,,0.00,548.000000,,2013-03-06 16:52:00,
2013-03-06 11:01:00,52.0,25.0,-100.00,NNW,345,5.0,15.0,35,0.00,,,0.00,548.000000,,2013-03-06 17:01:00,
2013-03-06 11:32:00,54.0,26.0,-100.00,North,10,6.0,15.0,33,0.00,,,0.00,668.000000,,2013-03-06 17:32:00,
2013-03-06 11:42:00,54.0,26.0,-100.00,North,10,6.0,15.0,33,0.00,,,0.00,668.000000,,2013-03-06 17:42:00,
2013-03-06 11:53:00,54.0,26.0,-100.00,North,10,6.0,15.0,33,0.00,,,0.00,668.000000,,2013-03-06 17:53:00,
2013-03-06 12:02:00,54.0,26.0,-100.00,North,10,6.0,15.0,33,0.00,,,0.00,668.000000,,2013-03-06 18:02:00,
2013-03-06 12:32:00,56.0,24.0,-100.00,NNW,342,6.0,15.0,29,0.00,,,0.00,729.000000,,2013-03-06 18:32:00,
2013-03-06 12:42:00,56.0,24.0,-100.00,NNW,342,6.0,15.0,29,0.00,,,0.00,729.000000,,2013-03-06 18:42:00,
2013-03-06 12:53:00,56.0,24.0,-100.00,NNW,342,6.0,15.0,29,0.00,,,0.00,729.000000,,2013-03-06 18:53:00,
2013-03-06 13:02:00,56.0,24.0,-100.00,NNW,342,6.0,15.0,29,0.00,,,0.00,729.000000,,2013-03-06 19:02:00,
2013-03-06 13:33:00,59.0,25.0,-100.00,North,355,6.0,15.0,27,0.00,,,0.00,746.000000,,2013-03-06 19:33:00,
2013-03-06 13:43:00,59.0,25.0,-100.00,North,355,6.0,15.0,27,0.00,,,0.00,746.000000,,2013-03-06 19:43:00,
2013-03-06 13:53:00,59.0,25.0,-100.00,North,355,6.0,15.0,27,0.00,,,0.00,746.000000,,2013-03-06 19:53:00,
2013-03-06 14:02:00,59.0,25.0,-100.00,North,355,6.0,15.0,27,0.00,,,0.00,746.000000,,2013-03-06 20:02:00,
2013-03-06 14:33:00,60.0,25.0,-100.00,NNW,346,5.0,14.0,26,0.00,,,0.00,694.000000,,2013-03-06 20:33:00,
2013-03-06 14:43:00,60.0,25.0,-100.00,NNW,346,5.0,14.0,26,0.00,,,0.00,694.000000,,2013-03-06 20:43:00,
2013-03-06 14:53:00,60.0,25.0,-100.00,NNW,346,5.0,14.0,26,0.00,,,0.00,694.000000,,2013-03-06 20:53:00,
2013-03-06 15:02:00,60.0,25.0,-100.00,NNW,346,5.0,14.0,26,0.00,,,0.00,694.000000,,2013-03-06 21:02:00,
2013-03-06 15:33:00,60.0,23.0,-100.00,NNE,16,7.0,14.0,24,0.00,,,0.00,584.000000,,2013-03-06 21:33:00,
2013-03-06 15:42:00,60.0,23.0,-100.00,NNE,16,7.0,14.0,24,0.00,,,0.00,584.000000,,2013-03-06 21:42:00,
2013-03-06 15:52:00,60.0,23.0,-100.00,NNE,16,7.0,14.0,24,0.00,,,0.00,584.000000,,2013-03-06 21:52:00,
2013-03-06 16:01:00,60.0,23.0,-100.00,NNE,16,7.0,14.0,24,0.00,,,0.00,584.000000,,2013-03-06 22:01:00,
2013-03-06 16:32:00,60.0,23.0,-100.00,North,354,5.0,13.0,24,0.00,,,0.00,392.000000,,2013-03-06 22:32:00,
2013-03-06 16:42:00,60.0,23.0,-100.00,North,354,5.0,13.0,24,0.00,,,0.00,392.000000,,2013-03-06 22:42:00,
2013-03-06 16:52:00,60.0,23.0,-100.00,North,354,5.0,13.0,24,0.00,,,0.00,392.000000,,2013-03-06 22:52:00,
2013-03-06 17:01:00,60.0,23.0,-100.00,North,354,5.0,13.0,24,0.00,,,0.00,392.000000,,2013-03-06 23:01:00,
2013-03-06 17:32:00,55.0,24.0,-100.00,North,351,5.0,11.0,30,0.00,,,0.00,196.000000,,2013-03-06 23:32:00,
2013-03-06 17:42:00,55.0,24.0,-100.00,North,351,5.0,11.0,30,0.00,,,0.00,196.000000,,2013-03-06 23:42:00,
2013-03-06 17:52:00,55.0,24.0,-100.00,North,351,5.0,11.0,30,0.00,,,0.00,196.000000,,2013-03-06 23:52:00,
2013-03-06 18:01:00,55.0,24.0,-100.00,North,351,5.0,11.0,30,0.00,,,0.00,196.000000,,2013-03-07 00:01:00,
2013-03-06 18:32:00,50.0,25.0,-100.00,North,359,3.0,8.0,38,0.00,,,0.00,16.000000,,2013-03-07 00:32:00,
2013-03-06 18:42:00,50.0,25.0,-100.00,North,359,3.0,8.0,38,0.00,,,0.00,16.000000,,2013-03-07 00:42:00,
2013-03-06 18:52:00,50.0,25.0,-100.00,North,359,3.0,8.0,38,0.00,,,0.00,16.000000,,2013-03-07 00:52:00,
2013-03-06 19:01:00,50.0,25.0,-100.00,North,359,3.0,8.0,38,0.00,,,0.00,16.000000,,2013-03-07 01:01:00,
2013-03-06 19:32:00,46.0,28.0,-100.00,North,0,3.0,5.0,50,0.00,,,0.00,0.000000,,2013-03-07 01:32:00,
2013-03-06 19:42:00,46.0,28.0,-100.00,North,0,3.0,5.0,50,0.00,,,0.00,0.000000,,2013-03-07 01:42:00,
2013-03-06 19:52:00,46.0,28.0,-100.00,North,0,3.0,5.0,50,0.00,,,0.00,0.000000,,2013-03-07 01:52:00,
2013-03-06 20:01:00,46.0,28.0,-100.00,North,0,3.0,5.0,50,0.00,,,0.00,0.000000,,2013-03-07 02:01:00,
2013-03-06 20:32:00,43.0,28.0,-100.00,North,9,2.0,6.0,55,0.00,,,0.00,0.000000,,2013-03-07 02:32:00,
2013-03-06 20:42:00,43.0,28.0,-100.00,North,9,2.0,6.0,55,0.00,,,0.00,0.000000,,2013-03-07 02:42:00,
2013-03-06 20:52:00,43.0,28.0,-100.00,North,9,2.0,6.0,55,0.00,,,0.00,0.000000,,2013-03-07 02:52:00,
2013-03-06 21:02:00,43.0,28.0,-100.00,North,9,2.0,6.0,55,0.00,,,0.00,0.000000,,2013-03-07 03:02:00,
2013-03-06 21:32:00,42.0,28.0,-100.00,North,355,3.0,6.0,58,0.00,,,0.00,0.000000,,2013-03-07 03:32:00,
2013-03-06 21:42:00,42.0,28.0,-100.00,North,355,3.0,6.0,58,0.00,,,0.00,0.000000,,2013-03-07 03:42:00,
2013-03-06 21:52:00,42.0,28.0,-100.00,North,355,3.0,6.0,58,0.00,,,0.00,0.000000,,2013-03-07 03:52:00,
2013-03-06 22:01:00,42.0,28.0,-100.00,North,355,3.0,6.0,58,0.00,,,0.00,0.000000,,2013-03-07 04:01:00,
2013-03-06 22:32:00,40.0,28.0,-100.00,North,7,3.0,6.0,62,0.00,,,0.00,0.000000,,2013-03-07 04:32:00,
2013-03-06 22:42:00,40.0,28.0,-100.00,North,7,3.0,6.0,62,0.00,,,0.00,0.000000,,2013-03-07 04:42:00,
2013-03-06 22:52:00,40.0,28.0,-100.00,North,7,3.0,6.0,62,0.00,,,0.00,0.000000,,2013-03-07 04:52:00,
2013-03-06 23:02:00,40.0,28.0,-100.00,North,7,3.0,6.0,62,0.00,,,0.00,0.000000,,2013-03-07 05:02:00,
2013-03-06 23:32:00,38.0,28.0,-100.00,NNE,23,3.0,6.0,68,0.00,,,0.00,0.000000,,2013-03-07 05:32:00,
2013-03-06 23:42:00,38.0,28.0,-100.00,NNE,23,3.0,6.0,68,0.00,,,0.00,0.000000,,2013-03-07 05:42:00,
2013-03-06 23:52:00,38.0,28.0,-100.00,NNE,23,3.0,6.0,68,0.00,,,0.00,0.000000,,2013-03-07 05:52:00,